AirNav   Phillips 66 Aviation Fuel
 
 445 users online  

53CL Lofty Redwoods Airport
Anchor Bay, California, USA

GOING TO ANCHOR BAY?


FAA INFORMATION EFFECTIVE 12 OCTOBER 2017

Location

FAA Identifier: 53CL
Lat/Long: 38-51-34.6710N / 123-35-26.0430W
38-51.577850N / 123-35.434050W
38.8596308 / -123.5905675
(estimated)
Elevation: 1317 ft. / 401 m (estimated)
Variation: 17E (1985)
From city: 3 miles N of ANCHOR BAY, CA
Time zone: UTC -7 (UTC -8 during Standard Time)
Zip code: 95445

Airport Operations

Airport use: Private use. Permission required prior to landing
Activation date: 07/1968
Control tower: no
ARTCC: OAKLAND CENTER
FSS: OAKLAND FLIGHT SERVICE STATION
Attendance: UNATNDD
Wind indicator: yes
Segmented circle: no

Airport Communications

WX AWOS-A at 85CA (6 nm SE): PHONE 707-884-1416

Nearby radio navigation aids

VOR radial/distance  VOR name  Freq  Var
ENIr216/18.8MENDOCINO VORTAC112.3016E

Airport Services

Airframe service: NONE
Powerplant service: NONE

Runway Information

Runway 13/31

Dimensions: 3200 x 60 ft. / 975 x 18 m
Surface: gravel/treated
SEAL COATED.
RUNWAY 13  RUNWAY 31
Traffic pattern: leftright
Obstructions: treestrees

Airport Ownership and Management from official FAA records

Ownership: Privately-owned
Owner: RICHARD HENRIKSON
29460 TEN MILE CUTOFF ROAD, PO BOX 1058
POINT ARENA, CA 95468
Phone 707-884-9069
Manager: RICHARD HENRIKSON
29460 TEN MILE CUTOFF ROAD, PO BOX 1058
POINT ARENA, CA 95468
Phone 707-884-9069

Airport Operational Statistics

Aircraft based on the field: 1
Single engine airplanes: 1
    

Additional Remarks

5 DEG DOGLEG AT MIDPOINT ON RWY 13/31.
HIGH TREES AT W SIDE OF RWY.

Instrument Procedures

There are no published instrument procedures at 53CL.

Some nearby airports with instrument procedures:

KUKI - Ukiah Municipal Airport (24 nm NE)
KLLR - Little River Airport (25 nm N)
O60 - Cloverdale Municipal Airport (28 nm E)
1O2 - Lampson Field Airport (33 nm E)
O28 - Ells Field-Willits Municipal Airport (37 nm N)
 
Loc | Ops | Rwys | IFR | FBO | Links
Com | Nav | Svcs | Stats | Notes

Sonoma Jet Center
 
Area around 53CL (Lofty Redwoods Airport)
 
Road maps at: MapQuest Bing Google
 
Aerial photo
WARNING: Photo may not be current or correct
Aerial photo of 53CL (Lofty Redwoods Airport)
Taken in September 2002

Do you have a better or more recent aerial photo of Lofty Redwoods Airport that you would like to share? If so, please send us your photo.

 
Sectional chart

 
Airport distance calculator
Flying to Lofty Redwoods Airport? Find the distance to fly.

From to 53CL

Sunrise and sunset
Times for 21-Oct-2017
 Local
(UTC-7)
 Zulu
(UTC)
Morning civil twilight07:0414:04
Sunrise07:3114:31
Sunset18:2701:27
Evening civil twilight18:5401:54

Current date and time
Zulu (UTC)  21-Oct-2017 11:03:29
Local (UTC-7)  21-Oct-2017 04:03:29
 
METAR
KUKI 
24nm NE 
211056Z AUTO 00000KT 10SM CLR 06/04 A3021 RMK AO2 SLP229 T00610039
HES 
35nm E 
SuperAWOS
210955Z AUTO 29004KT 10SM 09/05 A3019
KSTS 
42nm SE 
707-573-8393
211053Z AUTO 00000KT 4SM BR CLR 05/05 A3017 RMK AO2 SLP212 T00500050
TAF
KUKI 
24nm NE 
210520Z 2106/2206 VRB03KT P6SM FEW005 BKN250 FM211700 VRB04KT P6SM BKN050 OVC100 FM212200 VRB04KT P6SM VCSH BKN030 OVC060
NOTAMs
Click for the latest NOTAMs
NOTAMs are issued by the DoD/FAA and will open in a separate window not controlled by AirNav.

 

 
 

Would you like to see your business listed on this page?

 If your business provides an interesting product or service to pilots, flight crews, aircraft, or users of the Lofty Redwoods Airport, you should consider listing it here.  To start the listing process, click on the button below
 
Add a business
 

Other Pages about Lofty Redwoods Airport

Update a link
 
Copyright © AirNav, LLC. All rights reserved. Privacy Policy  Contact